Location: Newark
(23.5328°S, 46.7919°W)
Time: 23:51:02
(UTC+00:00)

Envisat - Pass Details

Date: 08 March 2021
Orbit: 764 x 766 km, 98.1° (Epoch: 22 April)

Event Time Altitude Azimuth Distance (km) Brightness Sun altitude
Rises 07:13:18 0° 44° (NE) 3,218 6.6 -26.1°
Reaches altitude 10° 07:16:03 10° 59° (ENE) 2,299 6.0 -25.5°
Maximum altitude 07:19:53 22° 108° (ESE) 1,634 5.5 -24.6°
Drops below altitude 10° 07:23:44 10° 158° (SSE) 2,318 6.0 -23.8°
Sets 07:26:30 0° 172° (S) 3,252 6.6 -23.2°
